STARLINK-36717

Last updated on Sat Mar 14 2026 00:02:07 GMT+0000 (Coordinated Universal Time)

1 67743U 26026Y 26072.58334491 -.02550295 00000+0 -81573-1 0 9991 2 67743 97.2848 127.1986 0001858 53.9670 55.2283 15.36418338 6073

Satellite not in orbit